Location: Three Oaks Observatory
(31.1535°N, 83.5955°W)
Time: 01:25:51
(UTC-04:00)

ISS - Pass Details

Date: 26 February 2019
Orbit: 406 x 411 km, 51.6° (Epoch: 20 March)

Event Time Altitude Azimuth Distance (km) Brightness Sun altitude
Exits shadow 05:44:38 21° 344° (NNW) 981 -2.1 -17.9°
Drops below altitude 10° 05:46:31 10° 17° (NNE) 1,462 -0.8 -17.5°
Sets 05:48:53 0° 32° (NNE) 2,325 0.5 -17.0°
